RH
73 69 68 68 65 65 61 59 55 52 51 50 49 47 45 45 44 41 37 34 33 39 34 36 39 44 49 53 59 63 71 67 72 79 79 76 78 75 78 73 74 75 81 81 83 89 79 59 62 76 81 82 87 87
82 80 79 78 76 68 65 64 60 58 50 48 48 47 47 46 50 53 55 53 50 49 43 44 47 48 50 51 53 57 55 56 59 64 68 71 74 75 72 74 69 77 72 73 76 65 58 63 68 76 79 86 84 86
86 84 84 79 77 74 72 70 66 62 64 67 66 62 59 61 59 58 56 52 52 53 48 48 48 48 49 48 52 58 55 59 61 61 66 72 78 77 77 76 75 74 72 78 79 62 65 68 74 80 85 83 91 91
55 56 58 59 59 60 61 65 65 63 61 64 68 68 68 67 66 64 61 61 61 64 64 53 50 54 58 61 62 67 68 67 71 75 77 81 81 83 78 74 76 68 72 73 72 63 70 76 82 88 94 96 93 88
40 41 40 40 41 42 44 47 49 50 55 58 60 61 62 61 62 64 62 62 63 64 65 57 51 52 56 58 58 59 59 63 68 71 76 75 74 75 72 72 65 65 68 80 71 76 89 87 91 98 98 96 85 78
23 22 24 26 27 28 29 34 36 40 44 45 44 44 51 56 57 57 54 55 60 61 63 59 49 45 47 50 53 55 58 62 64 64 65 67 68 77 77 70 56 66 74 82 88 82 85 91 96 98 86 79 77 78
18 19 19 21 23 26 31 35 36 36 38 38 40 41 43 41 40 45 46 46 49 51 58 54 48 47 46 41 41 45 46 49 52 56 57 60 64 76 75 77 56 73 77 84 91 90 90 89 82 78 77 77 79 77
22 23 23 23 23 23 25 28 29 30 31 33 33 33 34 37 38 41 42 41 43 49 54 55 47 42 43 46 47 48 50 55 58 61 63 67 69 77 80 77 82 76 75 77 77 79 80 79 75 74 77 79 79 75
21 22 23 23 23 24 25 25 26 29 29 31 31 29 28 31 34 37 38 41 44 47 52 52 55 55 55 56 59 60 64 67 69 71 75 77 77 76 72 75 79 77 76 76 78 75 74 71 70 69 68 69 70 67
23 25 25 25 25 26 27 29 30 32 35 35 32 34 36 40 43 45 45 49 51 53 57 57 61 72 68 73 75 72 72 73 71 66 69 68 60 59 64 65 73 73 77 76 72 70 71 68 66 66 66 64 68 70
22 24 26 28 32 33 34 38 36 35 36 39 42 45 46 48 48 51 53 54 61 64 69 75 78 81 79 76 74 73 73 72 74 68 78 75 66 72 65 72 83 90 79 75 75 73 72 72 71 68 66 69 71 76
26 27 27 28 26 28 28 30 31 31 32 34 36 39 43 48 53 54 61 63 68 72 75 75 76 75 69 71 77 77 78 76 74 76 80 72 61 70 71 69 76 80 73 72 71 68 67 75 81 84 84 81 78 78
26 23 22 24 26 28 32 39 40 38 34 33 40 46 50 53 58 62 67 67 68 64 64 66 72 75 73 79 77 78 80 80 77 73 67 59 59 72 74 77 76 77 79 76 73 76 80 84 91 93 86 83 74 73
24 25 29 34 40 43 44 46 49 47 46 42 47 51 53 54 61 62 55 52 52 61 66 70 73 79 73 80 74 77 83 84 76 71 63 60 68 65 69 75 77 76 80 81 78 80 84 86 85 88 89 80 71 65
30 32 32 38 45 52 56 57 59 60 59 53 53 53 51 51 54 53 56 58 60 67 71 74 73 74 77 80 76 76 79 76 67 68 64 65 67 71 77 81 80 75 77 83 83 85 88 87 82 80 84 77 68 67
35 37 39 47 55 63 70 75 76 75 72 69 60 52 53 58 54 56 58 59 62 67 71 76 81 82 81 83 79 76 75 65 53 65 69 77 81 82 83 85 80 78 78 81 86 86 88 82 77 77 80 72 72 70
44 42 43 52 61 73 81 83 85 84 81 76 66 56 59 58 55 51 56 57 64 70 76 80 82 80 78 82 80 76 72 67 69 72 82 86 89 89 87 87 85 84 82 81 81 82 82 81 81 81 77 75 75 70
47 47 51 55 65 81 91 92 94 90 85 80 76 61 59 54 55 56 59 62 69 75 78 82 81 84 82 81 77 72 76 78 79 87 92 94 93 93 90 88 87 88 89 92 90 89 91 90 87 83 81 79 73 66
47 50 57 66 78 94 96 92 93 88 79 81 78 74 66 60 55 57 60 64 70 79 86 87 88 84 82 83 86 86 89 92 88 86 90 90 91 89 88 87 86 87 89 93 97 94 94 91 89 88 84 79 72 69
50 56 72 82 82 94 98 94 89 90 83 82 79 79 78 70 62 59 61 66 72 81 86 88 85 84 88 91 94 93 93 93 94 90 89 89 90 90 91 89 89 90 91 93 96 95 94 94 92 91 89 83 75 68
67 68 79 89 93 96 94 89 89 88 89 87 80 81 81 76 71 66 65 72 74 74 74 78 82 87 90 92 95 95 96 96 98 98 95 92 93 94 92 93 94 94 94 95 97 98 98 96 94 91 88 83 75 70
73 79 86 94 99 99 93 89 91 89 92 88 87 88 88 83 76 73 83 84 77 73 79 86 93 95 96 96 97 98 98 97 97 99 98 98 94 95 97 97 97 98 99 99 99 99 98 96 94 92 86 80 75 70
84 91 95 98 99 95 86 85 91 90 96 95 93 96 94 86 81 84 89 83 79 78 78 80 84 89 91 92 95 98 99 99 98 97 97 96 96 94 93 93 93 94 96 98 99 99 98 95 92 89 83 78 73 71
92 97 99 98 94 94 91 91 90 93 96 97 98 95 87 80 82 89 91 90 88 89 88 86 82 85 86 86 90 97 99 96 94 94 95 94 94 93 91 89 87 89 90 93 95 95 94 92 90 87 83 78 74 69
97 98 98 97 98 99 97 96 97 98 95 97 96 91 91 91 91 91 95 95 96 96 95 94 95 93 93 91 93 97 96 93 88 90 92 92 90 90 90 89 88 87 86 87 89 91 91 90 90 86 85 81 76 69
97 95 96 96 98 98 98 98 98 98 98 98 98 96 96 96 98 98 98 98 98 98 98 99 98 96 96 96 96 94 93 92 89 88 89 89 87 86 85 84 85 85 86 83 77 75 77 82 84 83 82 81 79 76
98 98 98 98 99 98 98 98 98 98 98 98 98 99 98 97 98 95 98 99 99 99 98 97 95 93 91 90 89 88 86 85 84 82 83 84 84 83 82 83 84 83 81 79 75 71 66 66 68 70 71 72 74 72
99 99 99 98 99 99 99 98 99 99 99 99 98 99 99 98 99 99 99 99 97 93 86 78 71 66 63 62 62 63 65 67 68 69 71 73 74 75 76 78 79 80 80 79 78 76 71 69 69 70 73 72 71 71
99 99 98 98 98 97 98 98 98 97 98 99 97 94 92 90 86 79 71 66 62 61 62 65 68 71 73 75 75 76 77 77 78 80 82 84 85 85 86 84 83 82 81 81 77 75 73 73 68 67 73 76 76 76
91 81 81 83 84 84 87 84 83 80 73 71 70 67 65 67 72 74 78 80 80 79 80 80 80 80 82 82 81 81 81 80 80 81 81 83 85 87 90 90 89 90 90 87 86 83 80 76 72 68 66 73 79 80
74 74 75 75 73 71 71 68 67 67 67 68 72 76 80 85 86 89 86 84 86 86 86 85 85 86 86 86 84 83 84 86 86 85 83 84 86 87 89 92 94 94 95 92 91 90 88 85 81 77 74 72 76 85
61 64 65 65 62 64 65 64 60 59 60 64 67 71 76 81 86 80 84 89 89 88 88 88 88 88 87 87 86 84 83 83 85 87 89 88 89 91 90 92 92 93 93 92 91 92 92 90 89 86 82 79 77 77
58 64 69 69 64 62 61 62 61 62 65 69 73 80 86 88 87 85 90 90 90 91 90 89 89 88 87 86 84 83 84 86 87 90 94 96 93 95 92 92 94 89 86 85 87 91 93 93 93 92 91 88 84 80